This is the latest recevied weather packets stored in our database for station/object K2CCS. If no packets are shown the sender has not sent any weather packets the latest 10 day(s).
| Time | Temp. | Humidity | Pressure | Rain* | Wind** | Luminosity | Snow |
|---|---|---|---|---|---|---|---|
| 1777528847 | 10° C | 99% | 1011.3 hPa | 1.78 mm | - | 0 W/m² | - |
| 1777528543 | 10° C | 99% | 1011.3 hPa | 1.78 mm | - | 0 W/m² | - |
| 1777528241 | 10° C | 99% | 1011.4 hPa | 1.78 mm | - | 0 W/m² | - |
| 1777527939 | 10° C | 99% | 1011.3 hPa | 1.78 mm | - | 0 W/m² | - |
| 1777527634 | 10° C | 99% | 1011.5 hPa | 0 mm | - | 0 W/m² | - |
| 1777527330 | 10° C | 99% | 1011.3 hPa | 0 mm | - | 0 W/m² | - |
| 1777527026 | 10° C | 99% | 1011.5 hPa | 1.27 mm | - | 0 W/m² | - |
| 1777526721 | 10° C | 99% | 1011.5 hPa | 1.27 mm | - | 0 W/m² | - |
| 1777526417 | 10° C | 99% | 1011.4 hPa | 1.78 mm | - | 0 W/m² | - |
| 1777526111 | 10° C | 99% | 1011.5 hPa | 3.05 mm | - | 0 W/m² | - |
| 1777525808 | 10° C | 99% | 1011.5 hPa | 3.05 mm | - | 0 W/m² | - |
| 1777525506 | 10° C | 99% | 1011.7 hPa | 1.78 mm | - | 0 W/m² | - |
| 1777525202 | 10° C | 99% | 1011.6 hPa | 1.27 mm | - | 0 W/m² | - |
| 1777524898 | 10° C | 99% | 1012.1 hPa | 1.27 mm | - | 0 W/m² | - |
| 1777524596 | 10° C | 99% | 1011.9 hPa | 1.78 mm | - | 0 W/m² | - |
| 1777524294 | 10.56° C | 98% | 1011.9 hPa | 4.83 mm | - | 0 W/m² | - |
| 1777523989 | 10.56° C | 98% | 1012.2 hPa | 4.32 mm | - | 0 W/m² | - |
| 1777523686 | 10.56° C | 98% | 1011.9 hPa | 4.83 mm | - | 0 W/m² | - |
| 1777523382 | 10.56° C | 98% | 1012 hPa | 3.56 mm | - | 0 W/m² | - |
| 1777523079 | 10.56° C | 98% | 1012 hPa | 3.05 mm | - | 0 W/m² | - |
| 1777522775 | 11.11° C | 98% | 1012 hPa | 3.05 mm | - | 0 W/m² | - |
| 1777522472 | 11.11° C | 97% | 1012.3 hPa | 3.05 mm | - | 0 W/m² | - |
| 1777522170 | 11.11° C | 97% | 1012 hPa | 3.05 mm | - | 0 W/m² | - |
| 1777521866 | 11.67° C | 97% | 1012.2 hPa | 3.05 mm | - | 0 W/m² | - |
| 1777521562 | 11.67° C | 96% | 1012.3 hPa | 13.72 mm | - | 0 W/m² | - |
* Rain latest hour (hover to see other rain measurements)
** Current wind speed in m/s (hover to see current wind gust speed)